Flag for U.S.A. Weather past 2 weeks in Chico, California, U.S.A.

Now
59 °F

Broken clouds.


Feels Like: 59 °F
Forecast: 40 / 63 °F
Wind: No wind

Location: Chico Municipal

Current Time: Feb 28, 2015 at 5:01:55 PM

Latest Report: Feb 28, 2015 at 3:55 PM


Visibility: 25 mi

Pressure: 29.82 "Hg

Humidity: 45%

Dew point: 37 °F

Location of ChicoLocation

Historic Weather in Chico — Graph

°F

Chico temperature yesterday

Maximum temperature yesterday: 64 °F (at 2:47 PM)
Minimum temperature yesterday: 45 °F (at 5:15 AM)
Average temperature yesterday: 53 °F

Past Weeks' High & Low Weather Summary

 TemperatureHumidityPressure
High72 °F (Feb 14, 4:47 PM)100% (Feb 13, 10:55 PM)30.36 "Hg (Feb 13, 10:55 PM)
Low36 °F (Feb 24, 3:15 AM)12% (Feb 22, 6:15 PM)29.64 "Hg (Feb 27, 4:47 PM)
Average53 °F68%30.04 "Hg
* Reported Feb 13 3:51 PM — Feb 28 3:55 PM, Chico, Weather by CustomWeather, © 2015

Note: Actual official high and low records may vary slightly from our data, if they occured in-between our weather recording intervals... More about our weather records

Advertising

Chico weather history for previous 24 hours

 ConditionsComfort  
Time TempWeatherWind HumidityBarometerVisibility
3:55 PM
Sat, Feb 28
59 °FBroken clouds.No wind45%29.82 "Hg25 mi
2:53 PM59 °FPartly sunny.6 mph45%29.81 "Hg25 mi
1:50 PM57 °FPartly sunny.6 mph51%29.82 "Hg25 mi
12:55 PM57 °FPartly sunny.6 mph51%29.82 "Hg40 mi
11:51 AM55 °FPartly sunny.6 mph55%29.83 "Hg40 mi
10:47 AM54 °FPartly sunny.No wind63%29.82 "Hg80 mi
9:50 AM50 °FPartly sunny.No wind76%29.81 "Hg40 mi
8:56 AM50 °FPartly sunny.No wind76%29.80 "Hg40 mi
7:58 AM46 °FPartly sunny.No wind82%29.78 "Hg40 mi
6:48 AM45 °FPartly sunny.No wind81%29.75 "Hg40 mi
5:35 AM46 °FOvercast.No wind82%29.74 "Hg10 mi
5:15 AM46 °FMostly cloudy.No wind76%29.73 "Hg10 mi
4:55 AM45 °FOvercast.No wind87%29.72 "Hg10 mi
4:35 AM45 °FMostly cloudy.No wind81%29.72 "Hg10 mi
4:15 AM46 °FOvercast.3 mph76%29.72 "Hg10 mi
3:55 AM45 °FMostly cloudy.5 mph81%29.71 "Hg10 mi
3:35 AM45 °FOvercast.5 mph81%29.71 "Hg10 mi
3:15 AM45 °FOvercast.6 mph81%29.71 "Hg10 mi
2:55 AM45 °FOvercast.6 mph81%29.71 "Hg10 mi
2:35 AM45 °FOvercast.No wind81%29.71 "Hg10 mi
2:15 AM45 °FOvercast.No wind81%29.71 "Hg10 mi
1:55 AM45 °FOvercast.No wind81%29.70 "Hg10 mi
1:35 AM43 °FPassing clouds.No wind81%29.70 "Hg10 mi
1:15 AM45 °FPassing clouds.No wind81%29.70 "Hg10 mi
12:55 AM45 °FPassing clouds.No wind81%29.70 "Hg10 mi
12:35 AM45 °FClear.3 mph81%29.69 "Hg10 mi
12:15 AM45 °FClear.No wind81%29.69 "Hg10 mi
11:55 PM
Fri, Feb 27
45 °FClear.No wind81%29.69 "Hg10 mi
11:35 PM46 °FClear.No wind71%29.68 "Hg10 mi
10:55 PM46 °FPassing clouds.3 mph76%29.69 "Hg10 mi
10:35 PM46 °FPassing clouds.3 mph76%29.68 "Hg10 mi
10:15 PM48 °FClear.5 mph71%29.69 "Hg10 mi
9:55 PM50 °FClear.3 mph58%29.69 "Hg10 mi
9:35 PM50 °FClear.6 mph58%29.69 "Hg10 mi
9:15 PM50 °FClear.3 mph62%29.69 "Hg10 mi
8:55 PM52 °FPassing clouds.7 mph58%29.68 "Hg10 mi
8:35 PM54 °FOvercast.9 mph51%29.67 "Hg10 mi
8:15 PM55 °FOvercast.10 mph47%29.67 "Hg10 mi
7:15 PM57 °FMostly cloudy.3 mph63%29.66 "Hg10 mi
6:55 PM57 °FOvercast.No wind59%29.65 "Hg10 mi
6:35 PM57 °FOvercast.7 mph63%29.64 "Hg10 mi
6:15 PM57 °FOvercast.No wind63%29.64 "Hg10 mi
5:59 PM57 °FPassing clouds.12 mph63%29.64 "Hg25 mi
5:55 PM59 °FOvercast.9 mph59%29.64 "Hg10 mi
Weather by CustomWeather, © 2015

See weather overviewHow to use our weather pages